Other Public Products
Issued by NWS Charleston, SC

Current Version | Previous Version | Text Only | Print | Product List | Glossary Off
Versions: 1 2 3 4 5 6 7 8 9 10 11 12 13 14 15 16 17 18 19 20 21 22 23 24 25 26 27 28 29 30 31 32 33 34 35 36 37 38 39 40 41 42 43 44 45 46 47 48 49 50

193
FPUS82 KCHS 171927
OPUCHS

TEST...KCHS/KSAV Gateway Observations...TEST
National Weather Service Charleston SC
200 PM EST WED JAN 17 2018

NOTE: "fair" indicates few or no clouds below 12,000 feet with no
significant weather and/or obstructions to visibility.

SCZ050-WAZ558-NCZ071-TXZ119-213-PAZ071-DCZ001-FLZ074-172-MI076-
NYZ176-178-MAZ016-IL014-TNZ027-NJZ106-GAZ044-MD014-172000-

...Gateway Observations for Charleston International...

CITY           SKY/WX    TMP DP  RH WIND       PRES   REMARKS
Chas Airport   CLOUDY    47  36  65 NW13      30.16F
Seattle        CLOUDY    52  41  66 SE8       29.91F
Charlotte      SNOW      30  27  88 N12       30.21F VSB 1/2 WCI  20
Dallas DFW     SUNNY     29   3  33 VRB3      30.69F
Dallas Love    SUNNY     30   3  31 SW3       30.72F
Philladelphia  CLOUDY    27  16  63 NW15      30.28S WCI  15
Wash National  CLOUDY    26  10  50 N18       30.35F WCI  13
Baltimore      PTSUNNY   24   8  50 NW15      30.32F WCI  11
Miami          CLOUDY    73  54  51 VRB6      30.16F
Detroit        FAIR      23  14  68 SW14      30.37F WCI  11
Newark         CLOUDY    34  30  85 NW10      30.19F WCI  26
Laguardia      CLOUDY    34  30  85 NW14      30.17F WCI  25
J F K          CLOUDY    34  32  92 NW15      30.18F WCI  24
Boston Logan   LGT SNOW  33  32  96 N9        30.14F FOG     WCI  25
Ft. Lauderdale CLOUDY    70  56  61 NW8       30.15F
Chicago O`Hare FAIR      19   8  62 W10G18    30.44F WCI   7
Chicago Midway FAIR      18   8  65 W12       30.46F WCI   5
Houston Bush   FAIR      35  13  40 N10       30.68F WCI  27
Houston Hobby  FAIR      32  14  47 N7        30.68F WCI  26
Nashville      FAIR      19   8  62 N10G18    30.63F WCI   7
Atlanta        FAIR      22   8  55 NW23G29   30.35F WCI   6

$$

GAZ044-118-TXZ119-213-NCZ071-DCZ001-MDZ014-506-PAZ021-071-NJZ106-
NYZ176-178-MAZ106-OHZ011-021-055-MIZ076-KYZ091-ILZ014-INZ047-
MNZ060-ONZ431-172000-

...Gateway Observations for Savannah International...

CITY           SKY/WX    TMP DP  RH WIND       PRES   REMARKS
Savannah Arpt  CLOUDY    42  33  70 NW14      30.22F
Atlanta        FAIR      22   8  55 NW23G29   30.35F WCI   6
Charlotte      SNOW      30  27  88 N12       30.21F VSB 1/2 WCI  20
Dallas DFW     SUNNY     29   3  33 VRB3      30.69F
Houston Bush   FAIR      35  13  40 N10       30.68F WCI  27
Wash National  CLOUDY    26  10  50 N18       30.35F WCI  13
Wash Dulles    PTSUNNY   22   8  55 N13G24    30.35F WCI  10
Baltimore      PTSUNNY   24   8  50 NW15      30.32F WCI  11
Philadelphia   CLOUDY    27  16  63 NW15      30.28S WCI  15
Newark         CLOUDY    34  30  85 NW10      30.19F WCI  26
Laguardia      CLOUDY    34  30  85 NW14      30.17F WCI  25
J F K          CLOUDY    34  32  92 NW15      30.18F WCI  24
Boston         LGT SNOW  33  32  96 N9        30.14F FOG     WCI  25
Pittsburg      PTSUNNY   14   6  70 W7        30.39F WCI   4
Akron          LGT SNOW  12   5  73 SW9       30.40F WCI   0
Cleveland      CLOUDY    19   9  65 SW12      30.43F WCI   7
Cincinnati     FAIR      16   9  74 SW7       30.52F WCI   6
Columbus       CLOUDY    11   5  76 SW7       30.51S WCI   1
Detroit        FAIR      23  14  68 SW14      30.37F WCI  11
Chicago O`Hare FAIR      19   8  62 W10G18    30.44F WCI   7
Minneapolis    FAIR      21   8  57 SW12      30.18F WCI   9
Indianapolis   FAIR      14   6  70 SW9       30.54F WCI   2
Toronto Canada MOSUNNY   21  10  63 SW13      30.26F WCI   9

$$




USA.gov is the U.S. government's official web portal to all federal, state and local government web resources and services.